Location: Newark
(34.3481°N, 134.0494°E)
Time: 09:16:15
(UTC+00:00)

Explorer 11/Cluster Stage 4 - Visible Passes

Search period start: 29 January 2020 00:00
Search period end: 08 February 2020 00:00
Orbit: 467 x 1259 km, 28.8° (Epoch: 28 January)

Date Brightness Start Highest point End Pass type
(mag) Time Alt. Az. Time Alt. Az. Time Alt. Az.
29 Jan 9.6 09:53:37 10° SW 09:55:58 12° SW 09:58:12 10° SSW visible
30 Jan 9.9 09:44:10 10° SW 09:45:00 10° SW 09:45:50 10° SSW visible
07 Feb 9.3 21:15:51 10° SSE 21:16:15 10° SSE 21:16:39 10° SE visible
